www.pogodaiklimat.ru

Погода и климат >> Архив погоды >> Ирландия >> Малин Хед


ПОГОДА в Малин Хед

  • Прогноз погоды в Малин Хед
  • Монитор погоды в Малин Хед

АРХИВ ПОГОДЫ в Малин Хед

Время (UTC), дата Ветер
(напр.,м/с)
 
Видим.   Явления Облачность Т
(С)
Тd
(С)
f
(%)
Тe
(С)
Тes
(С)
Комфортность P
(гПа)
Po
(гПа)
Тmin
(С)
Tmax
(С)
R
(мм)
R24
(мм)
S
(см)
07 14.04 ЮВ 13
{19}
27 км н/о +5.4 +0.1 69 -1 -1 1021.9 1019.3
08 14.04 ЮВ 12
{20}
27 км н/о +5.8 -0.4 64 -1 -1 1021.9 1019.3
09 14.04 ЮВ 12
{20}
29 км н/о +6.0 -0.5 63 -0 -0 1021.8 1019.3
10 14.04 ЮВ 12
{18}
30 км н/о +6.3 -0.6 61 0 0 1021.8 1019.2
11 14.04 ЮВ 14
{20}
26 км н/о +6.2 -0.9 60 -0 -0 1022.3 1019.8
12 14.04 ЮВ 11
{19}
25 км н/о +6.5 -0.8 60 +1 +1 1022.9 1020.3
13 14.04 ЮВ 12
{18}
11 км н/о +6.6 -0.8 59 +1 +1 1023.3 1020.8
14 14.04 ЮВ 11
{19}
23 км в посл. час морось {ливн. осадки} н/о +6.9 0.0 61 +1 +1 1022.5 1019.9
15 14.04 ЮВ 14
{18}
18 км {ливн. осадки} н/о +6.8 -0.4 60 +1 +1 1021.8 1019.3
16 14.04 ЮВ 11
{18}
30 км н/о +6.9 -0.6 59 +1 +1 1022.1 1019.5
17 14.04 ЮВ 10 29 км н/о +7.1 -0.2 60 +2 +2 1022.2 1019.6
18 14.04 ЮВ 10 21 км {ливн. осадки} н/о +7.4 +0.7 62 +2 +2 1021.4 1018.9 +7.4 0.0
19 14.04 ЮВ 11 29 км н/о +7.2 +0.5 62 +2 +2 1021.5 1019.0
20 14.04 ЮВ 9 29 км н/о +7.1 +0.4 62 +2 +2 1021.9 1019.4
21 14.04 В 9 26 км н/о +7.0 +0.3 62 +2 +2 1022.2 1019.6
22 14.04 ЮВ 9 25 км н/о +6.6 +0.7 66 +1 +1 1022.4 1019.9
23 14.04 ЮВ 10 30 км н/о +6.6 +0.8 66 +1 +1 1021.9 1019.3
00 15.04 ЮВ 11 30 км н/о +6.5 +1.0 68 +1 +1 1021.3 1018.8
01 15.04 ЮВ 10 28 км н/о +6.3 +1.3 70 +1 +1 1020.9 1018.3
02 15.04 ЮВ 11 21 км н/о +6.4 +1.9 73 0 0 1019.8 1017.2
03 15.04 ЮВ 12 17 км н/о +6.4 +2.1 74 0 0 1018.6 1016.1
04 15.04 ЮВ 11
{18}
15 км н/о +6.3 +2.0 74 0 0 1018.2 1015.6
05 15.04 ЮВ 13 13 км н/о +6.3 +1.8 73 -0 -0 1017.4 1014.8
06 15.04 ЮВ 15
{19}
11 км н/о +6.3 +1.6 72 -1 -1 1016.7 1014.1 +6.1
07 15.04 ЮВ 14
{21}
9000 м дымка н/о +6.5 +2.1 73 -0 -0 1015.8 1013.3
08 15.04 ЮВ 14
{22}
9000 м дымка н/о +6.9 +2.0 71 +1 +1 1015.4 1012.9
09 15.04 В 14
{21}
10 км {дымка} н/о +7.1 +2.8 74 +1 +1 1014.1 1011.5
10 15.04 ЮВ 17
{23}
6000 м слаб. дождь н/о +6.2 +3.4 82 -1 -1 1012.6 1010.1
11 15.04 ЮВ 17
{23}
9000 м в посл. час дождь {ливн. осадки} н/о +7.4 +3.2 75 +1 +1 1012.2 1009.7
12 15.04 ЮВ 17
{25}
11 км {ливн. осадки, дождь} н/о +8.5 +3.0 68 +2 +2 1011.4 1008.9 1
13 15.04 ЮВ 14
{25}
11 км н/о +9.0 +2.7 65 +4 +4 1011.4 1008.9
14 15.04 ЮВ 16
{24}
10 км н/о +8.7 +2.8 66 +3 +3 1010.7 1008.2
15 15.04 ЮВ 18
{26}
12 км н/о +9.3 +2.5 62 +4 +4 1009.8 1007.3
16 15.04 ЮВ 18
{25}
11 км н/о +9.5 +3.0 64 +4 +4 1009.8 1007.3
17 15.04 ЮВ 15
{22}
8000 м слаб. морось н/о +8.8 +4.3 73 +3 +3 1009.6 1007.1
18 15.04 ЮВ 12
{22}
9000 м слаб. ливневой дождь {морось} н/о +8.9 +4.9 76 +4 +4 1009.1 1006.6 +9.6 1
19 15.04 ЮВ 10
{20}
12 км в посл. час морось н/о +9.6 +4.0 68 +5 +5 1009.3 1006.8
20 15.04 ЮВ 12
{18}
10 км н/о +10.1 +3.8 65 +6 +6 1009.8 1007.4
21 15.04 ЮВ 10
{17}
13 км {морось} н/о +10.5 +3.4 61 +7 +7 1010.6 1008.1
22 15.04 Ю 6 9000 м слаб. морось {дымка} н/о +9.9 +4.5 69 +7 +7 1011.8 1009.3
23 15.04 Ю 10 9000 м слаб. ливневой дождь н/о +8.6 +4.6 76 +4 +4 1012.2 1009.7
00 16.04 ЮВ 9 8000 м слаб. ливневой дождь {морось} н/о +7.7 +5.3 85 +3 +3 1012.8 1010.3 0.2
01 16.04 ЮВ 9 8000 м морось {дождь} н/о +7.5 +5.4 87 +2 +2 1013.0 1010.5
02 16.04 ЮВ 10 8000 м морось н/о +7.5 +5.6 88 +2 +2 1013.1 1010.6
03 16.04 ЮВ 9 8000 м слаб. ливневой дождь н/о +7.4 +5.6 88 +2 +2 1013.5 1011.0
04 16.04 ЮВ 9 6000 м слаб. дождь н/о +7.0 +5.8 92 +1 +1 1013.6 1011.1
05 16.04 ЮВ 9 8000 м слаб. морось {дождь} н/о +6.9 +5.7 92 +1 +1 1013.8 1011.3
06 16.04 ЮВ 9 8000 м слаб. ливневой дождь н/о +7.0 +5.7 91 +1 +1 1014.4 1011.9 +6.9 2
07 16.04 ЮВ 7 8000 м в посл. час морось н/о +7.2 +6.1 93 +2 +2 1015.2 1012.7
08 16.04 ЮВ 9 8000 м дымка н/о +7.5 +6.2 91 +2 +2 1015.8 1013.3
09 16.04 ЮВ 8 7000 м дымка н/о +7.6 +6.0 90 +3 +3 1016.2 1013.7
10 16.04 ЮВ 8 7000 м дымка н/о +8.6 +6.7 88 +4 +4 1016.3 1013.8
11 16.04 ЮВ 7 12 км н/о +9.4 +6.6 83 +5 +5 1016.4 1013.9
12 16.04 В 7 6000 м дымка н/о +9.2 +7.2 87 +5 +5 1016.5 1014.0 0.0
13 16.04 В 7 5000 м дымка н/о +9.6 +7.7 88 +6 +6 1016.5 1013.9
14 16.04 ЮВ 7 12 км н/о +11.0 +6.6 74 +8 +8 1016.6 1014.1
15 16.04 ЮВ 5 11 км {дымка} н/о +10.6 +6.7 77 +8 +8 1016.5 1014.0
16 16.04 ЮВ 6 11 км н/о +10.4 +6.8 78 +7 +7 1016.5 1014.0
17 16.04 ЮВ 7 9000 м дымка н/о +10.1 +7.0 81 +6 +6 1016.5 1014.0
18 16.04 ЮВ 6 6000 м дымка н/о +9.5 +6.7 83 +6 +6 1016.8 1014.3 +11.1 0.0
19 16.04 ЮВ 5 6000 м дымка н/о +9.3 +6.9 85 +6 +6 1017.3 1014.8
20 16.04 ЮВ 4 5000 м дымка н/о +9.0 +6.5 84 +6 +6 1017.7 1015.2
21 16.04 ЮВ 6 5000 м дымка н/о +8.9 +6.5 85 +5 +5 1017.5 1015.0
22 16.04 ЮВ 7 5000 м дымка н/о +8.9 +6.6 85 +5 +5 1017.8 1015.2
23 16.04 ЮВ 7 5000 м дымка н/о +7.9 +5.9 87 +3 +3 1017.9 1015.4
00 17.04 ЮВ 7 4800 м дымка н/о +6.8 +5.4 91 +2 +2 1018.0 1015.4
01 17.04 Ю 2 4300 м дымка н/о +5.7 +4.7 93 +3 +3 1018.2 1015.6
02 17.04 В 2 6000 м дымка н/о +6.4 +4.8 89 +4 +4 1018.2 1015.6
03 17.04 штиль 0 6000 м дымка н/о +6.3 +4.9 91 +5 +5 1018.1 1015.5
04 17.04 СЗ 1 4500 м дымка н/о +5.4 +4.2 92 +4 +4 1018.2 1015.7
05 17.04 Ю 1 5000 м дымка н/о +5.5 +4.2 91 +4 +4 1018.2 1015.6
06 17.04 ЮВ 7 3500 м дымка н/о +6.9 +5.8 93 +2 +2 1018.4 1015.9 +5.2
07 17.04 ЮВ 8 3600 м дымка н/о +8.4 +7.1 92 +4 +4 1018.9 1016.4
08 17.04 ЮВ 8 4500 м дымка н/о +9.0 +7.4 90 +5 +5 1019.6 1017.0
09 17.04 ЮВ 8 6000 м дымка н/о +10.0 +7.5 84 +6 +6 1019.9 1017.4
10 17.04 ЮВ 6 4800 м дымка н/о +9.8 +7.6 86 +6 +6 1020.2 1017.7
11 17.04 ЮВ 10 6000 м дымка н/о +10.7 +7.5 81 +7 +7 1020.3 1017.8
12 17.04 ЮВ 8 7000 м дымка н/о +12.5 +8.3 76 +9 +9 1020.4 1017.9
13 17.04 ЮВ 8 10 км н/о +12.9 +7.7 71 +10 +10 1020.2 1017.7
14 17.04 ЮВ 6 11 км н/о +14.1 +8.4 69 +12 +12 1020.0 1017.5
15 17.04 ЮВ 9 11 км н/о +13.7 +7.0 64 +11 +11 1019.8 1017.3
16 17.04 В 7 6000 м дымка н/о +11.4 +7.6 77 +8 +8 1019.8 1017.3
17 17.04 В 6 7000 м дымка н/о +11.2 +7.9 80 +8 +8 1020.1 1017.6
18 17.04 В 5 6000 м дымка н/о +9.9 +7.7 86 +7 +7 1020.3 1017.8 +14.4
19 17.04 В 3 6000 м дымка н/о +10.0 +8.0 87 +8 +8 1020.9 1018.4
20 17.04 ЮВ 5 6000 м дымка н/о +10.3 +7.8 84 +7 +7 1021.4 1018.9
21 17.04 ЮВ 2 7000 м дымка н/о +9.9 +7.7 86 +8 +8 1021.9 1019.3
22 17.04 В 6 8000 м дымка н/о +9.9 +7.4 84 +6 +6 1022.2 1019.7
23 17.04 В 2 7000 м дымка н/о +9.0 +7.3 89 +7 +7 1022.3 1019.8
00 18.04 В 5 7000 м дымка н/о +8.8 +7.5 92 +5 +5 1022.4 1019.9
01 18.04 В 4 8000 м дымка н/о +9.1 +7.2 88 +6 +6 1022.5 1020.0
02 18.04 Ю 3 10 км н/о +8.7 +7.1 90 +6 +6 1022.6 1020.1
03 18.04 ЮВ 6 9000 м дымка н/о +10.2 +7.2 82 +7 +7 1022.6 1020.1
04 18.04 В 7 8000 м дымка н/о +9.4 +7.4 87 +5 +5 1022.9 1020.4
05 18.04 В 8 10 км н/о +9.3 +7.3 87 +5 +5 1023.1 1020.6
06 18.04 В 9 9000 м дымка н/о +9.4 +7.3 87 +5 +5 1023.4 1020.8 +8.5
07 18.04 В 7 9000 м дымка н/о +9.3 +7.5 89 +5 +5 1023.9 1021.4
08 18.04 В 9 8000 м дымка н/о +9.7 +7.6 87 +5 +5 1024.2 1021.7
09 18.04 В 5 8000 м дымка н/о +10.2 +8.0 86 +7 +7 1024.4 1021.9
10 18.04 В 9 7000 м дымка н/о +10.4 +8.4 87 +6 +6 1024.1 1021.6
11 18.04 В 7 6000 м дымка н/о +10.4 +8.9 90 +7 +7 1024.4 1021.9
12 18.04 В 5 6000 м дымка н/о +12.2 +9.0 81 +10 +10 1024.5 1022.0
13 18.04 В 7 6000 м дымка н/о +11.1 +9.0 87 +8 +8 1024.5 1022.0
14 18.04 ЮВ 8 6000 м дымка н/о +14.3 +10.3 77 +12 +12 1024.4 1021.9
15 18.04 ЮВ 7 7000 м дымка н/о +16.6 +9.9 65 +15 +15 1024.3 1021.9
16 18.04 В 8 5000 м дымка н/о +11.3 +8.8 85 +8 +8 1024.6 1022.1
17 18.04 В 6 6000 м дымка н/о +12.1 +9.0 81 +9 +9 1024.8 1022.2
18 18.04 В 4 6000 м дымка н/о +11.9 +9.0 82 +10 +10 1024.9 1022.4 +17.0
19 18.04 ЮВ 1 5000 м дымка н/о +10.9 +8.3 84 +11 +11 1025.4 1022.9
20 18.04 ЮВ 6 5000 м дымка н/о +11.9 +9.1 83 +9 +9 1025.7 1023.2
21 18.04 Ю 6 5000 м дымка н/о +12.2 +8.7 79 +10 +10 1026.0 1023.5
22 18.04 ЮВ 6 4400 м дымка н/о +11.4 +8.4 82 +8 +8 1026.1 1023.6
23 18.04 ЮВ 6 4800 м дымка н/о +11.6 +8.3 80 +9 +9 1026.1 1023.6
00 19.04 Ю 4 4400 м дымка н/о +10.7 +7.9 83 +8 +8 1026.5 1024.0
01 19.04 Ю 2 4000 м дымка н/о +9.3 +7.4 88 +8 +8 1026.6 1024.0
02 19.04 Ю 3 4000 м дымка н/о +9.4 +7.2 86 +7 +7 1026.4 1023.9
03 19.04 ЮЗ 2 5000 м дымка н/о +9.6 +7.8 89 +8 +8 1026.7 1024.2
04 19.04 Ю 3 5000 м дымка н/о +10.0 +7.3 83 +8 +8 1026.7 1024.1
05 19.04 Ю 4 7000 м дымка н/о +11.1 +7.6 79 +9 +9 1026.9 1024.3
06 19.04 Ю 3 5000 м дымка н/о +9.9 +7.3 84 +8 +8 1027.0 1024.4 +8.9
07 19.04 Ю 4 7000 м дымка н/о +11.7 +8.8 82 +10 +10 1027.3 1024.7
08 19.04 ЮВ 4 8000 м дымка н/о +14.7 +9.9 73 +14 +14 1027.4 1024.9
09 19.04 ЮВ 5 9000 м дымка н/о +16.4 +10.2 67 +16 +16 1027.6 1025.1
10 19.04 В 3 6000 м дымка н/о +13.5 +9.6 77 +12 +12 1027.8 1025.3
11 19.04 ЮВ 6 11 км н/о +18.7 +11.3 62 +19 +19 1027.7 1025.2
12 19.04 Ю 6 14 км н/о +20.2 +11.1 56 +22 +22 комфорт 1027.4 1024.9
13 19.04 Ю 9 15 км н/о +19.6 +10.0 54 +20 +20 1027.2 1024.8
14 19.04 ЮВ 8 11 км н/о +20.2 +11.7 58 +21 +21 комфорт 1027.2 1024.8
15 19.04 Ю 4 20 км н/о +20.8 +10.8 53 +23 +23 комфорт 1027.2 1024.8
16 19.04 Ю 7 18 км н/о +20.1 +10.9 55 +21 +21 комфорт 1027.3 1024.9
17 19.04 З 8 11 км н/о +13.0 +9.6 80 +10 +10 1028.2 1025.7
18 19.04 З 4 10 км н/о +13.1 +10.3 83 +11 +11 1028.9 1026.4 +21.4
19 19.04 ЮЗ 1 8000 м дымка н/о +11.5 +9.6 88 +11 +11 1029.5 1027.0
20 19.04 ЮЗ 2 8000 м дымка н/о +10.3 +9.0 92 +9 +9 1029.9 1027.4
21 19.04 З 2 8000 м дымка н/о +9.7 +8.8 94 +8 +8 1030.4 1027.9
22 19.04 З 3 9000 м дымка н/о +10.5 +9.9 96 +8 +8 1030.7 1028.1
23 19.04 З 3 7000 м дымка н/о +10.4 +9.9 97 +8 +8 1030.7 1028.1
00 20.04 З 1 7000 м дымка н/о +10.2 +9.8 97 +10 +10 1030.6 1028.1
01 20.04 Ю 2 3100 м дымка н/о +10.1 +9.8 98 +8 +8 1030.7 1028.1
02 20.04 Ю 2 1600 м дымка н/о +9.9 +9.7 99 +8 +8 1031.0 1028.4
03 20.04 ЮВ 1 700 м туман {дымка} ?/? +9.8 +9.5 98 +9 +9 1031.1 1028.5
04 20.04 ЮЗ 1 400 м туман ?/? +9.9 +9.7 99 +9 +9 1031.5 1028.9
05 20.04 ЮЗ 2 900 м слаб. ливневой дождь {туман} ?/? +9.8 +9.7 99 +8 +8 1031.2 1028.7
06 20.04 Ю 3 700 м туман {дымка} ?/? +9.8 +9.8 100 +7 +7 1031.4 1028.9 +9.7 0.1
07 20.04 ЮЗ 2 6000 м в посл. час туман н/о +10.4 +10.4 100 +9 +9 1031.4 1028.8
08 20.04 Ю 2 4400 м дымка н/о +10.4 +10.3 99 +9 +9 1031.7 1029.1
09 20.04 ЮЗ 2 4400 м дымка {туман} н/о +10.6 +10.5 99 +9 +9 1031.6 1029.0
10 20.04 В 1 2400 м дымка н/о +10.1 +10.0 99 +9 +9 1031.5 1028.9
11 20.04 В 2 4600 м дымка н/о +10.2 +10.0 99 +9 +9 1031.3 1028.7
12 20.04 В 2 4400 м дымка {туман} н/о +10.5 +10.3 99 +9 +9 1031.0 1028.5
13 20.04 В 3 3900 м дымка н/о +10.5 +10.1 97 +8 +8 1030.8 1028.2
14 20.04 В 3 5000 м дымка н/о +10.5 +10.1 97 +8 +8 1030.3 1027.7
15 20.04 В 2 7000 м дымка н/о +10.8 +10.4 97 +9 +9 1029.6 1027.1
16 20.04 В 3 7000 м дымка н/о +10.3 +9.8 97 +8 +8 1029.0 1026.5
17 20.04 СВ 2 7000 м дымка н/о +9.9 +9.4 97 +8 +8 1028.7 1026.1
18 20.04 СВ 3 7000 м дымка н/о +9.9 +9.5 97 +7 +7 1027.9 1025.4 +11.1
19 20.04 В 2 5000 м дымка н/о +9.5 +9.2 98 +8 +8 1027.3 1024.8
20 20.04 СВ 1 3900 м дымка н/о +9.0 +8.8 99 +8 +8 1027.1 1024.5
21 20.04 В 1 5000 м дымка н/о +9.1 +8.9 99 +8 +8 1026.5 1023.9
22 20.04 Ю 2 9000 м дымка н/о +9.2 +9.1 99 +7 +7 1025.9 1023.4
23 20.04 З 1 4800 м дымка н/о +8.8 +8.6 99 +8 +8 1025.0 1022.4
00 21.04 ЮЗ 1 7000 м дымка н/о +8.5 +8.3 99 +8 +8 1024.2 1021.7
01 21.04 Ю 3 8000 м дымка н/о +8.9 +8.7 99 +6 +6 1023.1 1020.6
02 21.04 штиль 0 5000 м дымка н/о +8.9 +8.8 99 +8 +8 1022.3 1019.8
03 21.04 Ю 1 9000 м дымка н/о +9.4 +9.2 99 +9 +9 1021.1 1018.6
04 21.04 З 4 5000 м дымка н/о +10.2 +10.1 99 +7 +7 1020.8 1018.3
05 21.04 ЮЗ 2 3000 м дымка н/о +9.4 +9.1 98 +8 +8 1019.8 1017.3
06 21.04 Ю 2 4700 м дымка н/о +10.2 +10.1 99 +9 +9 1019.3 1016.7 +8.4
07 21.04 Ю 3 8000 м дымка н/о +11.6 +11.4 99 +10 +10 1018.5 1016.0

 

Местоположение метеостанции Малин Хед (Ирландия): широта 55.37 долгота -7.34 высота над уровнем моря 20 м.

В архиве по умолчанию представлена погода в Малин Хед за последнюю неделю. Архивные данные за месяц целиком и за предыдущие месяцы, начиная с января 2011 года, Вы можете получить, выбрав интересующий диапазон дат из раскрывающегося списка и нажав кнопку "Ввод!".


*Определитесь, кто Вы:
робот инопланетянин человек

Внимание! Время в таблицах - всемирное. Для получения местного времени необходимо прибавить поправку, которая равна 0 ч.

Смотрите также архив погоды в соседних городах и на ближайших метеорологических станциях:

Погода на Магиллигане (Великобритания) (36 км)
Погода в Каследерге (Великобритания) (76 км)
Погода в Порт-Эллене (Великобритания) (77 км)
Погода в Баллипатрик Форест (Великобритания) (77 км)
Погода в Портгленоне (Великобритания) (79 км)
Погода на Озере Lough Fea (Великобритания) (80 км)
Погода в Макрайханише (Великобритания) (104 км)
Погода в Белфасте (Великобритания) (107 км)
Погода на Финнер-роуд (Ирландия) (114 км)
Погода в Томастауне (Великобритания) (117 км)

Пояснения к столбцам:

Ветер - указаны скорость ветра в м/с - средняя за 10 мин, порывы в срок и между сроками (в фигурных скобках) и направление, откуда дует ветер: С - северный, СВ - северо-восточный, В - восточный, ЮВ - юго-восточный, Ю - южный, ЮЗ - юго-западный, З - западный, СЗ - северо-западный.
Видимость - горизонтальная дальность видимости в метрах или километрах. При видимости от 1 до 10 км при отсутствии осадков обычно наблюдается дымка, при ухудшении видимости до 1 км и менее - туман. В сухую погоду видимость может ухудшаться дымом, пылью или мглою.
Явления - указаны атмосферные явления, наблюдавшиеся в срок или в последний час перед сроком; фигурными скобками обозначены явления, наблюдавшиеся между сроками (за 1-3 часа до срока); квадратными скобками обозначены град или гололедные отложения с указанием их диаметра в мм.
Облачность - указаны через наклонную черту общая и нижняя облачность в баллах и высота нижней границы облаков в метрах; квадратными скобками обозначены формы облаков: Ci - перистые, Cs - перисто-слоистые, Cc - перисто-кучевые, Ac - высококучевые, As - высокослоистые, Sc - слоисто-кучевые, Ns - слоисто-дождевые, Cu - кучевые, Cb - кучево-дождевые. Подробнее классификацию облаков см. в Атласе облаков (PDF).
T - Температура воздуха - температура, измеренная на высоте 2 м над землей.
Td - Температура точки росы - температура, при понижении до которой содержащийся в воздухе водяной пар достигнет насыщения.
f - Относительная влажность воздуха - влажноcть воздуха, измеренная на высоте 2 м над землей.
Te - Эффективная температура - температура, которую ощущает одетый по сезону человек в тени. Характеристика душности погоды. При расчете учитывается влияние влажности воздуха и скорости ветра на теплоощущения человека.
Tes - Эффективная температура на солнце - температура, которую ощущает человек, с поправкой на солнечный нагрев. Характеристика знойности погоды. Зависит от высоты солнца над горизонтом, облачности и скорости ветра. Ночью, в пасмурную погоду, а также при ветре 12 м/с и более поправка равна нулю.
P - Атмосферное давление - приведенное к уровню моря атмосферное давление.
Po - Атмосферное давление - измеренное на уровне метеостанции атмосферное давление.
Tmin - Минимальная температура - минимум температуры воздуха на высоте 2 м над землей.
Tmax - Максимальная температура - максимум температуры воздуха на высоте 2 м над землей.
R - Количество осадков - Количество выпавших осадков за период времени, мм. При наведении курсора мыши на число - период времени, за который выпало указанное количество осадков.
R24 - Количество осадков - Количество выпавших осадков за 24 часа, мм.
S - Снежный покров - Высота снежного покрова, см. При наведении курсора мыши на число - состояние снежного покрова и степень покрытия местности в баллах.